Regional Weather Roundup
Issued by NWS New Orleans/Baton Rouge, LA

Home | Current Version | Previous Version | Graphics & Text | Print | Product List | Glossary On
Versions: 1 2 3 4 5 6 7 8 9 10 11 12 13 14 15 16 17 18 19 20 21 22 23 24 25 26 27 28 29 30 31 32 33 34 35 36 37 38 39 40 41 42 43 44 45 46 47 48 49 50
666
ASUS44 KLIX 191105
RWRLIX
NEW ORLEANS REGIONAL WEATHER ROUNDUP
NATIONAL WEATHER SERVICE NEW ORLEANS LA
600 AM CDT FRI SEP 19 2014

NOTE: "FAIR" INDICATES FEW OR NO CLOUDS BELOW 12,000 FEET WITH NO
      SIGNIFICANT WEATHER AND/OR OBSTRUCTIONS TO VISIBILITY.
      SKY/WX - SKY CONDITION AND SIGNIFICANT WEATHER.
      TMP - AIR TEMPERATURE.     DP    - DEWPOINT TEMPERATURE.
      RH  - RELATIVE HUMIDITY.   PRES  - PRESSURE.
      HI  - HEAT INDEX.          WCI   - WIND CHILL INDEX.

*  THESE STATIONS ARE NOT NWS OR FAA STATIONS AND ARE NOT UNDER
   NWS QUALITY CONTROL.

LAZ038-040-048-061>063-065>067-069-191200-
SOUTHEAST LOUISIANA

CITY           SKY/WX    TMP DP  RH WIND       PRES   REMARKS
N.O. AUDUBON     N/A     76  73  91 MISG        N/A
N.O. INTL ARPT CLOUDY    75  70  84 SE6       29.90F
N.O. LAKEFRONT CLOUDY    75  70  84 SE7       29.91S
N.O. DOWNTOWN* CLOUDY    75  66  73 SE7       29.92S
SLIDELL        CLOUDY    72  70  93 NE5       29.93R
BATON ROUGE    CLOUDY    72  69  90 NE5       29.92R
BOOTHVILLE     LGT RAIN  74  71  91 E15G22    29.93R
BELLE CHASSE   CLOUDY    75  69  81 SE7       29.91R
BOGALUSA*        N/A     71  68  89 CALM      29.95R FOG
GALLIANO*      NOT AVBL
NEW ROADS*     CLOUDY    72  70  95 NE3       29.92R
GONZALES*      PTSUNNY   73  73 100 CALM      29.91R
HAMMOND*       NOT AVBL
HOUMA*         CLOUDY    73  67  81 E5        29.91S
PORT FOURCHON* CLOUDY    73  72  94 E12       29.94R FOG

$$

MSZ070-080>082-191200-
SOUTHERN MISSISSIPPI

CITY           SKY/WX    TMP DP  RH WIND       PRES   REMARKS
MCCOMB         MOCLDY    70  68  93 CALM      29.94R FOG
GULFPORT       CLOUDY    71  70  96 SW3       29.93R
BILOXI         CLOUDY    73  69  88 E3        29.94R
PASCAGOULA     LGT RAIN  71  70  96 SE7       29.95R

$$

COASTAL OBSERVATIONS
LAKE AND NEARSHORE STATIONS

STATION/POSITION TIME  TEMP    WIND        PRES    WAVE
                       AIR SEA DIR/SP/G            HT/PER
                 (UTC) (F)     (DEG/KT/KT) (MB)    (FT/S)
PASCAGOULA       1100   75     120/  9/ 13 1013.5
WAVELAND YACHT   1100   74      80/ 10/ 12 1012.8
GRAND ISLE       1100   75 86   90/  9/ 15 1013.1
SOUTHWEST PASS   1100   77 90   60/ 18/ 22 1012.9
NEW CANAL        1100   74 81  140/  4/  7 1013.1
SHELL BEACH      1100   77 79  120/ 15/ 17 1012.7

OFFSHORE STATIONS

STATION/POSITION TIME  TEMP    WIND        PRES    WAVE
                       AIR SEA DIR/SP/G            HT/PER
                 (UTC) (F)     (DEG/KT/KT) (MB)    (FT/S)
64 S DAUPHIN ISL 1033   76 84   90/ 14/ 17 1013.5    2/ 3

$$




USA.gov is the U.S. government's official web portal to all federal, state and local government web resources and services.